WZZ69 EPWA-LBBG

Flight info

Callsign WZZ69
Flight time N/A
Altitude 38000
Route XIMBA N195 VENES M857 PODAN/N0428F390 DCT KENIN DCT KARIL DCT UBOGU DCT BULEN L742 ESENA
Aircraft A20N/M-SDE1E2E3FGIJ1J4RWXY/LB1

Departure

Time 2026-05-04 19:36
Airport Warsaw Chopin Airport (EPWA)

Arrival

Time N/A
Airport Burgas Airport (LBBG)
Time Latitude Longitude Altitude Speed Heading
2026-05-04 19:09 52.17152 20.97010 358 ft 0 kts 65°
2026-05-04 19:25 52.17149 20.97000 358 ft 1 kts 65°
2026-05-04 19:25 52.17146 20.96989 357 ft 1 kts 65°
2026-05-04 19:25 52.17142 20.96978 359 ft 1 kts 65°
2026-05-04 19:25 52.17139 20.96966 356 ft 1 kts 65°
2026-05-04 19:26 52.17135 20.96951 357 ft 1 kts 65°
2026-05-04 19:26 52.17132 20.96940 359 ft 1 kts 65°
2026-05-04 19:26 52.17129 20.96932 358 ft 1 kts 65°
2026-05-04 19:26 52.17126 20.96921 356 ft 1 kts 65°
2026-05-04 19:27 52.17123 20.96910 356 ft 1 kts 79°
2026-05-04 19:27 52.17122 20.96896 355 ft 1 kts 95°
2026-05-04 19:27 52.17123 20.96884 356 ft 1 kts 110°
2026-05-04 19:27 52.17126 20.96872 359 ft 1 kts 125°
2026-05-04 19:28 52.17130 20.96862 359 ft 1 kts 141°
2026-05-04 19:31 52.17117 20.96877 357 ft 4 kts 147°
2026-05-04 19:32 52.17079 20.96912 355 ft 8 kts 153°
2026-05-04 19:32 52.17017 20.96963 357 ft 12 kts 153°
2026-05-04 19:32 52.16935 20.97029 351 ft 15 kts 152°
2026-05-04 19:32 52.16836 20.97120 357 ft 18 kts 150°
2026-05-04 19:33 52.16721 20.97222 354 ft 20 kts 153°
2026-05-04 19:33 52.16596 20.97334 358 ft 19 kts 142°
2026-05-04 19:33 52.16530 20.97531 357 ft 21 kts 114°
2026-05-04 19:33 52.16465 20.97757 353 ft 23 kts 114°
2026-05-04 19:34 52.16396 20.98005 355 ft 25 kts 113°
2026-05-04 19:34 52.16322 20.98269 356 ft 24 kts 115°
2026-05-04 19:34 52.16258 20.98462 354 ft 14 kts 144°
2026-05-04 19:34 52.16172 20.98427 351 ft 14 kts 207°
2026-05-04 19:35 52.16123 20.98311 350 ft 14 kts 289°
2026-05-04 19:35 52.16186 20.98084 358 ft 46 kts 295°
2026-05-04 19:35 52.16422 20.97248 357 ft 114 kts 295°
2026-05-04 19:35 52.16826 20.95812 374 ft 161 kts 293°
2026-05-04 19:36 52.17286 20.94162 957 ft 160 kts 292°
2026-05-04 19:36 52.17744 20.92532 1683 ft 157 kts 293°
2026-05-04 19:36 52.18202 20.90941 2358 ft 158 kts 290°
2026-05-04 19:36 52.18354 20.89101 2751 ft 174 kts 260°
2026-05-04 19:37 52.17750 20.87298 3168 ft 197 kts 224°
2026-05-04 19:37 52.16750 20.85579 3691 ft 221 kts 228°
2026-05-04 19:37 52.15648 20.83640 4333 ft 244 kts 227°
2026-05-04 19:37 52.14450 20.81558 5170 ft 256 kts 228°
2026-05-04 19:38 52.13254 20.79409 6316 ft 255 kts 229°
2026-05-04 19:38 52.12073 20.77226 7331 ft 260 kts 229°
2026-05-04 19:38 52.10882 20.74987 8359 ft 263 kts 230°
2026-05-04 19:38 52.09680 20.72716 9404 ft 267 kts 230°
2026-05-04 19:39 52.08459 20.70410 10338 ft 274 kts 230°
2026-05-04 19:39 52.07166 20.67971 10810 ft 296 kts 230°
2026-05-04 19:39 52.05768 20.65340 11231 ft 317 kts 230°
2026-05-04 19:39 52.04331 20.62645 12060 ft 322 kts 230°
2026-05-04 19:40 52.02835 20.59841 13037 ft 325 kts 230°
2026-05-04 19:40 52.01376 20.57111 13922 ft 328 kts 230°
2026-05-04 19:40 51.99862 20.54295 14686 ft 334 kts 227°
2026-05-04 19:40 51.98022 20.51953 15438 ft 342 kts 211°
2026-05-04 19:41 51.95765 20.50618 16186 ft 352 kts 193°
2026-05-04 19:41 51.93295 20.50507 16926 ft 363 kts 175°
2026-05-04 19:41 51.90792 20.51311 17659 ft 370 kts 169°
2026-05-04 19:41 51.88288 20.52391 18387 ft 375 kts 168°
2026-05-04 19:42 51.85758 20.53512 19017 ft 379 kts 168°
2026-05-04 19:42 51.83192 20.54603 19656 ft 383 kts 168°
2026-05-04 19:42 51.80590 20.55663 20299 ft 388 kts 169°
2026-05-04 19:42 51.77953 20.56704 20929 ft 392 kts 169°
2026-05-04 19:43 51.75287 20.57741 21557 ft 396 kts 169°
2026-05-04 19:43 51.72588 20.58784 22161 ft 401 kts 169°
2026-05-04 19:43 51.69860 20.59836 22781 ft 405 kts 169°
2026-05-04 19:43 51.67102 20.60899 23384 ft 410 kts 169°
2026-05-04 19:44 51.64318 20.61972 23912 ft 414 kts 169°
2026-05-04 19:44 51.61505 20.63056 24449 ft 417 kts 169°
2026-05-04 19:44 51.58669 20.64148 24944 ft 420 kts 169°
2026-05-04 19:44 51.55811 20.65246 25437 ft 424 kts 169°
2026-05-04 19:45 51.52929 20.66351 25876 ft 429 kts 169°
2026-05-04 19:45 51.50014 20.67467 26340 ft 432 kts 169°
2026-05-04 19:45 51.47080 20.68591 26827 ft 435 kts 169°
2026-05-04 19:45 51.44122 20.69723 27258 ft 439 kts 169°
2026-05-04 19:46 51.41137 20.70863 27695 ft 442 kts 169°
2026-05-04 19:46 51.38131 20.72009 28087 ft 446 kts 169°
2026-05-04 19:46 51.35101 20.73162 28496 ft 449 kts 169°
2026-05-04 19:46 51.32045 20.74324 28898 ft 453 kts 169°
2026-05-04 19:47 51.28973 20.75490 29281 ft 456 kts 169°
2026-05-04 19:47 51.25872 20.76666 29662 ft 459 kts 169°
2026-05-04 19:47 51.22756 20.77847 30024 ft 462 kts 169°
2026-05-04 19:47 51.19620 20.79033 30381 ft 464 kts 169°
2026-05-04 19:48 51.16471 20.80223 30746 ft 466 kts 169°
2026-05-04 19:48 51.13308 20.81417 31095 ft 468 kts 169°
2026-05-04 19:48 51.10142 20.82609 31555 ft 467 kts 168°
2026-05-04 19:48 51.06988 20.83796 32079 ft 465 kts 168°
2026-05-04 19:49 51.03849 20.84976 32561 ft 463 kts 168°
2026-05-04 19:49 51.00713 20.86153 33030 ft 462 kts 168°
2026-05-04 19:49 50.97592 20.87323 33496 ft 460 kts 168°
2026-05-04 19:49 50.94481 20.88488 33951 ft 459 kts 168°
2026-05-04 19:50 50.91375 20.89648 34323 ft 458 kts 169°
2026-05-04 19:50 50.88279 20.90803 34681 ft 457 kts 169°
2026-05-04 19:50 50.85195 20.91953 35014 ft 456 kts 168°
2026-05-04 19:50 50.82109 20.93101 35344 ft 455 kts 168°
2026-05-04 19:51 50.79027 20.94246 35659 ft 455 kts 168°
2026-05-04 19:51 50.75952 20.95387 35975 ft 454 kts 168°
2026-05-04 19:51 50.72915 20.96513 36282 ft 453 kts 168°
2026-05-04 19:51 50.69846 20.97649 36583 ft 453 kts 168°
2026-05-04 19:52 50.66782 20.98782 36879 ft 452 kts 168°
2026-05-04 19:52 50.63729 20.99909 37203 ft 450 kts 168°
2026-05-04 19:52 50.60682 21.01032 37479 ft 450 kts 168°
2026-05-04 19:52 50.57636 21.02153 37740 ft 449 kts 168°
2026-05-04 19:53 50.54593 21.03271 38000 ft 449 kts 168°
2026-05-04 19:53 50.51553 21.04387 38248 ft 448 kts 168°
2026-05-04 19:53 50.48516 21.05501 38483 ft 448 kts 168°
2026-05-04 19:53 50.45481 21.06612 38704 ft 448 kts 168°
2026-05-04 19:54 50.42448 21.07722 38868 ft 447 kts 168°
2026-05-04 19:54 50.36380 21.09937 38962 ft 447 kts 168°
2026-05-04 19:55 50.30328 21.12139 38967 ft 447 kts 168°